(232430) = 2000 LA17 = 2003 FJ26

Discovered at Kitt Peak on 2003-03-24 by Spacewatch.

Orbit

Orbit type: Main Belt

Note: WebGL enabled browser required.

epoch2024-03-31.0
epoch JD2460400.5
perihelion date2021-07-18.00637
perihelion JD2459413.50637
argument of perihelion (°)109.64964
ascending node (°)178.47750
inclination (°)7.10532
eccentricity0.1330340
perihelion distance (AU)1.9897873
Tisserand w.r.t. Jupiter3.6
ΔV w.r.t. Earth (km/sec)9.0
semimajor axis (AU)2.2951159
mean anomaly (°)279.77653
mean daily motion (°/day)0.28346340
aphelion distance (AU)2.600
period (years)3.48
P-vector [x]0.31131871
P-vector [y]-0.91165010
P-vector [z]-0.26828111
Q-vector [x]0.95029988
Q-vector [y]0.29962978
Q-vector [z]0.08457030
absolute magnitude16.47
phase slope0.15
uncertainty0
referenceMPEC 2024-F50
observations used599
oppositions19
arc length (days)10698
first opposition used1994
last opposition used2024
residual rms (arc-secs)0.78
perturbers coarse indicatorM-v
perturbers precise indicator003Ek
first observation date used1994-12-04.0
last observation date used2024-03-19.0
computer nameMPCLINUX
JD of orbit computation2456847.823132
perihelion JD uncertainty (days)1.0628E-04
argument of perihelion uncertainty (°)4.2529E-05
ascending node uncertainty (°)3.0836E-05
inclination uncertainty (°)7.6027E-06
eccentricity uncertainty 4.0581E-08
perihelion distance uncertainty (AU)9.3992E-08
Minimum Orbit Intersection Distances (in AU)
for orbit epoch: 2460400.5, reference: E2024-GB3
Mercury1.54641
Venus1.27443
Earth0.98711
Mars0.57912
Jupiter2.55903
Saturn6.47448
Uranus15.9618
Neptune27.3869

Observations

617 total observations over interval: 1994 12 04.31743 – 2024 03 19.508082
These data are available for download (format description).

Date (UT) J2000 RA J2000 Dec Magn Location Ref
1994 12 04.31743 03 54 11.38 +09 33 21.6 19.7 V 691 – Steward Observatory, Kitt Peak-Spacewatch MPS 103854
1994 12 04.34283 03 54 09.88 +09 33 17.7   691 – Steward Observatory, Kitt Peak-Spacewatch MPS 103854
1994 12 04.36660 03 54 08.51 +09 33 10.6   691 – Steward Observatory, Kitt Peak-Spacewatch MPS 103854
1997 10 23.14528 23 19 10.43 -05 56 29.3 19.9 V 691 – Steward Observatory, Kitt Peak-Spacewatch MPS 103854
1997 10 23.16613 23 19 10.26 -05 56 34.8 19.6 V 691 – Steward Observatory, Kitt Peak-Spacewatch MPS 103854
1997 10 23.18790 23 19 10.08 -05 56 39.8 19.7 V 691 – Steward Observatory, Kitt Peak-Spacewatch MPS 103854
2000 06 04.26575 16 59 23.70 -08 59 27.6 18.9   704 – Lincoln Laboratory ETS, New Mexico MPS 16034
2000 06 04.30684 16 59 21.24 -08 59 15.5 18.3   704 – Lincoln Laboratory ETS, New Mexico MPS 16034
2000 06 04.32123 16 59 20.36 -08 59 13.6 18.3   704 – Lincoln Laboratory ETS, New Mexico MPS 16034
2000 06 10.22978 16 53 48.77 -08 42 53.5 18.0   704 – Lincoln Laboratory ETS, New Mexico MPS 16034
2000 06 10.25526 16 53 47.21 -08 42 49.1 18.6   704 – Lincoln Laboratory ETS, New Mexico MPS 16034
2000 06 10.26800 16 53 46.45 -08 42 47.3 18.2   704 – Lincoln Laboratory ETS, New Mexico MPS 16034
2003 03 24.21764 11 34 18.73 +02 28 06.3 19.2 V 691 – Steward Observatory, Kitt Peak-Spacewatch MPS 76314
2003 03 24.24433 11 34 17.27 +02 28 21.1 19.4 V 691 – Steward Observatory, Kitt Peak-Spacewatch MPS 76314
2003 03 24.27082 11 34 15.81 +02 28 35.8 19.3 V 691 – Steward Observatory, Kitt Peak-Spacewatch MPS 76314
2003 03 26.19857 11 32 35.15 +02 46 30.0 19.4   644 – Palomar Mountain/NEAT MPS 76314
2003 03 26.21984 11 32 34.03 +02 46 41.7 19.5   644 – Palomar Mountain/NEAT MPS 76314
2003 03 26.24232 11 32 32.82 +02 46 54.2 19.5   644 – Palomar Mountain/NEAT MPS 76314
2003 04 01.25234 11 27 35.31 +03 40 43.1 19.7   704 – Lincoln Laboratory ETS, New Mexico MPS 78353
2003 04 01.26403 11 27 34.73 +03 40 47.9 19.6   704 – Lincoln Laboratory ETS, New Mexico MPS 78353
2003 04 01.27568 11 27 34.12 +03 40 52.7 19.6   704 – Lincoln Laboratory ETS, New Mexico MPS 78353
2003 04 01.28756 11 27 33.55 +03 41 00.3 19.5   704 – Lincoln Laboratory ETS, New Mexico MPS 78353
2003 04 04.25273 11 25 19.48 +04 05 57.7 19.5   704 – Lincoln Laboratory ETS, New Mexico MPS 76314
2003 04 04.26479 11 25 18.88 +04 06 03.6 19.2   704 – Lincoln Laboratory ETS, New Mexico MPS 76314
2003 04 04.27715 11 25 18.33 +04 06 10.1 19.2   704 – Lincoln Laboratory ETS, New Mexico MPS 76314
2003 04 04.28989 11 25 17.83 +04 06 16.2 19.5   704 – Lincoln Laboratory ETS, New Mexico MPS 76314
2004 08 26.35639 00 28 51.36 +04 31 48.6 19.1 R 703 – Catalina Sky Survey MPS 112189
2004 08 26.36712 00 28 51.00 +04 31 43.6 19.0 R 703 – Catalina Sky Survey MPS 112189
2004 08 26.37788 00 28 50.78 +04 31 40.0 18.8 R 703 – Catalina Sky Survey MPS 112189
2004 08 26.38867 00 28 50.38 +04 31 37.5 18.1 R 703 – Catalina Sky Survey MPS 112189
2004 09 08.24013 00 21 38.60 +02 48 18.0 19.0   704 – Lincoln Laboratory ETS, New Mexico MPS 112703
2004 09 08.25201 00 21 38.10 +02 48 11.2 19.1   704 – Lincoln Laboratory ETS, New Mexico MPS 112703
2004 09 08.26394 00 21 37.53 +02 48 04.8 19.8   704 – Lincoln Laboratory ETS, New Mexico MPS 112703
2004 09 08.27584 00 21 37.04 +02 47 57.7 19.5   704 – Lincoln Laboratory ETS, New Mexico MPS 112703
2004 09 08.28836 00 21 36.49 +02 47 51.3 19.5   704 – Lincoln Laboratory ETS, New Mexico MPS 112703
2004 09 09.23559 00 20 55.85 +02 39 03.6 19.3   704 – Lincoln Laboratory ETS, New Mexico MPS 112703
2004 09 09.24699 00 20 55.38 +02 38 57.3 19.8   704 – Lincoln Laboratory ETS, New Mexico MPS 112703
2004 09 09.28120 00 20 53.82 +02 38 38.1 19.4   704 – Lincoln Laboratory ETS, New Mexico MPS 112703
2004 09 12.30155 00 18 37.75 +02 09 43.0 20.1 R 683 – Goodricke-Pigott Observatory, Tucson MPS 112848
2004 09 12.31493 00 18 37.21 +02 09 36.3 20.6 R 683 – Goodricke-Pigott Observatory, Tucson MPS 112848
2004 09 12.32830 00 18 36.51 +02 09 28.8 19.5 R 683 – Goodricke-Pigott Observatory, Tucson MPS 112848
2004 09 13.29828 00 17 51.07 +01 59 58.1 19.5 R 683 – Goodricke-Pigott Observatory, Tucson MPS 112848
2004 09 13.31167 00 17 50.50 +01 59 51.8 19.9 R 683 – Goodricke-Pigott Observatory, Tucson MPS 112848
2004 09 13.32503 00 17 49.58 +01 59 42.9 20.2 R 683 – Goodricke-Pigott Observatory, Tucson MPS 112848
2004 09 13.36549 00 17 47.69 +01 59 19.5 18.6 R 699 – Lowell Observatory-LONEOS MPS 120473
2004 09 13.38011 00 17 47.00 +01 59 10.1   699 – Lowell Observatory-LONEOS MPS 120473
2004 09 13.39470 00 17 46.33 +01 59 02.3   699 – Lowell Observatory-LONEOS MPS 120473
2004 09 13.40929 00 17 45.50 +01 58 53.9   699 – Lowell Observatory-LONEOS MPS 120473
2004 09 15.32272 00 16 13.83 +01 39 52.7 19.0 V 691 – Steward Observatory, Kitt Peak-Spacewatch MPS 112848
2004 09 15.35105 00 16 12.38 +01 39 35.7 19.1 V 691 – Steward Observatory, Kitt Peak-Spacewatch MPS 112848
2004 09 15.37794 00 16 11.00 +01 39 19.6 19.1 V 691 – Steward Observatory, Kitt Peak-Spacewatch MPS 112848
2004 09 16.26712 00 15 27.76 +01 30 22.5 18.8 R 699 – Lowell Observatory-LONEOS MPS 115251
2004 09 16.28502 00 15 26.80 +01 30 12.4   699 – Lowell Observatory-LONEOS MPS 115251
2004 09 16.30288 00 15 25.89 +01 30 00.8   699 – Lowell Observatory-LONEOS MPS 115251
2004 09 16.32076 00 15 24.92 +01 29 50.7   699 – Lowell Observatory-LONEOS MPS 115251
2004 09 17.27264 00 14 37.87 +01 20 13.6 19.4   704 – Lincoln Laboratory ETS, New Mexico MPS 114347
2004 09 17.28431 00 14 37.28 +01 20 05.2 19.5   704 – Lincoln Laboratory ETS, New Mexico MPS 114347
2004 09 17.31936 00 14 35.41 +01 19 44.6 20.1   704 – Lincoln Laboratory ETS, New Mexico MPS 114347
2004 10 06.18417 23 59 05.60 -01 46 48.9 18.9 R 699 – Lowell Observatory-LONEOS MPS 115730
2004 10 06.20038 23 59 05.00 -01 46 58.6   699 – Lowell Observatory-LONEOS MPS 115730
2004 10 06.21658 23 59 04.18 -01 47 07.8   699 – Lowell Observatory-LONEOS MPS 115730
2004 10 06.23280 23 59 03.47 -01 47 16.2   699 – Lowell Observatory-LONEOS MPS 115730
2004 10 07.27716 23 58 17.60 -01 56 32.3 19.2   704 – Lincoln Laboratory ETS, New Mexico MPS 115730
2004 10 07.28785 23 58 17.08 -01 56 38.0 19.5   704 – Lincoln Laboratory ETS, New Mexico MPS 115730
2004 10 07.29855 23 58 16.61 -01 56 44.0 19.4   704 – Lincoln Laboratory ETS, New Mexico MPS 115730
2004 10 07.30924 23 58 16.14 -01 56 49.5 19.5   704 – Lincoln Laboratory ETS, New Mexico MPS 115730
2004 10 07.31992 23 58 15.58 -01 56 54.6 19.7   704 – Lincoln Laboratory ETS, New Mexico MPS 115730
2004 10 09.19534 23 56 56.78 -02 13 06.9 19.5   704 – Lincoln Laboratory ETS, New Mexico MPS 116609
2004 10 09.20605 23 56 56.34 -02 13 11.2 19.8   704 – Lincoln Laboratory ETS, New Mexico MPS 116609
2004 10 09.21676 23 56 55.86 -02 13 17.8 19.9   704 – Lincoln Laboratory ETS, New Mexico MPS 116609
2004 10 09.22748 23 56 55.45 -02 13 22.3 19.5   704 – Lincoln Laboratory ETS, New Mexico MPS 116609
2004 10 09.23820 23 56 54.94 -02 13 28.7 19.6   704 – Lincoln Laboratory ETS, New Mexico MPS 116609
2005 11 10.453857 08 32 26.833 +10 39 51.26 21.04 V 645 – Apache Point-Sloan Digital Sky Survey MPS 390360
2005 11 10.457329 08 32 26.935 +10 39 50.35 21.96   645 – Apache Point-Sloan Digital Sky Survey MPS 390360
2006 01 22.23053 08 06 07.32 +10 27 31.0 19.4 R 699 – Lowell Observatory-LONEOS MPS 160392
2006 01 22.25795 08 06 05.45 +10 27 38.3   699 – Lowell Observatory-LONEOS MPS 160392
2006 01 22.28536 08 06 03.75 +10 27 46.2   699 – Lowell Observatory-LONEOS MPS 160392
2006 01 22.31281 08 06 01.99 +10 27 51.2   699 – Lowell Observatory-LONEOS MPS 160392
2006 01 31.22502 07 56 55.50 +11 13 11.9 20.2 V 703 – Catalina Sky Survey MPS 161754
2006 01 31.23037 07 56 55.17 +11 13 13.6 19.8 V 703 – Catalina Sky Survey MPS 161754
2006 01 31.23571 07 56 54.78 +11 13 14.7 20.3 V 703 – Catalina Sky Survey MPS 161754
2006 01 31.24108 07 56 54.52 +11 13 17.8 20.2 V 703 – Catalina Sky Survey MPS 161754
2007 06 15.96278 17 34 32.06 -09 06 50.0 18.1 V A50 – Andrushivka Astronomical Observatory MPS 211047
2007 06 15.98037 17 34 31.07 -09 06 48.3 18.5 V A50 – Andrushivka Astronomical Observatory MPS 211047
